Time,TemperatureF,DewpointF,PressureIn,WindDirection,WindDirectionDegrees,WindSpeedMPH,WindSpeedGustMPH,Humidity,HourlyPrecipIn,Conditions,Clouds,dailyrainin,SoftwareType,DateUTC
2013-01-19 00:04:00,32.0,22.0,-100.00,South,175,2.0,9.0,65,0.00,,,-99.99,,2013-01-19 05:04:00,
2013-01-19 00:12:00,32.0,22.0,-100.00,SW,220,2.0,8.0,65,0.00,,,-99.99,,2013-01-19 05:12:00,
2013-01-19 00:23:00,32.0,22.0,-100.00,South,185,2.0,7.0,65,0.00,,,-99.99,,2013-01-19 05:23:00,
2013-01-19 00:33:00,32.0,22.0,-100.00,SE,130,2.0,4.0,66,0.00,,,-99.99,,2013-01-19 05:33:00,
2013-01-19 00:43:00,32.0,22.0,-100.00,SE,125,0.0,6.0,67,0.00,,,-99.99,,2013-01-19 05:43:00,
2013-01-19 00:52:00,31.0,22.0,-100.00,SSW,200,0.0,6.0,68,0.00,,,-99.99,,2013-01-19 05:52:00,
2013-01-19 01:03:00,31.0,22.0,-100.00,SSE,155,0.0,4.0,70,0.00,,,-99.99,,2013-01-19 06:03:00,
2013-01-19 01:12:00,30.0,22.0,-100.00,South,185,0.0,4.0,72,0.00,,,-99.99,,2013-01-19 06:12:00,
2013-01-19 01:22:00,30.0,22.0,-100.00,NW,315,0.0,2.0,74,0.00,,,-99.99,,2013-01-19 06:22:00,
2013-01-19 01:33:00,29.0,22.0,-100.00,NNE,25,0.0,1.0,75,0.00,,,-99.99,,2013-01-19 06:33:00,
2013-01-19 01:43:00,30.0,23.0,-100.00,ESE,110,0.0,3.0,76,0.00,,,-99.99,,2013-01-19 06:43:00,
2013-01-19 01:52:00,30.0,23.0,-100.00,East,100,0.0,2.0,76,0.00,,,-99.99,,2013-01-19 06:52:00,
2013-01-19 02:02:00,29.0,23.0,-100.00,East,85,0.0,2.0,77,0.00,,,-99.99,,2013-01-19 07:02:00,
2013-01-19 02:12:00,31.0,23.0,-100.00,SSW,210,0.0,3.0,71,0.00,,,-99.99,,2013-01-19 07:12:00,
2013-01-19 02:22:00,29.0,23.0,-100.00,NNE,30,0.0,2.0,76,0.00,,,-99.99,,2013-01-19 07:22:00,
2013-01-19 02:33:00,29.0,22.0,-100.00,NW,320,0.0,2.0,74,0.00,,,-99.99,,2013-01-19 07:33:00,
2013-01-19 02:43:00,30.0,23.0,-100.00,NE,40,0.0,3.0,76,0.00,,,-99.99,,2013-01-19 07:43:00,
2013-01-19 02:52:00,31.0,23.0,-100.00,ESE,120,0.0,2.0,74,0.00,,,-99.99,,2013-01-19 07:52:00,
2013-01-19 03:02:00,29.0,23.0,-100.00,South,170,0.0,1.0,77,0.00,,,-99.99,,2013-01-19 08:02:00,
2013-01-19 03:12:00,29.0,23.0,-100.00,South,175,0.0,0.0,77,0.00,,,-99.99,,2013-01-19 08:12:00,
2013-01-19 03:22:00,29.0,23.0,-100.00,East,95,0.0,2.0,77,0.00,,,-99.99,,2013-01-19 08:22:00,
2013-01-19 03:32:00,29.0,23.0,-100.00,ENE,65,0.0,0.0,77,0.00,,,-99.99,,2013-01-19 08:32:00,
2013-01-19 03:43:00,29.0,24.0,-100.00,NNE,25,0.0,2.0,80,0.00,,,-99.99,,2013-01-19 08:43:00,
2013-01-19 03:52:00,29.0,24.0,-100.00,NW,305,0.0,1.0,80,0.00,,,-99.99,,2013-01-19 08:52:00,
2013-01-19 04:02:00,30.0,24.0,-100.00,NE,35,0.0,1.0,78,0.00,,,-99.99,,2013-01-19 09:02:00,
2013-01-19 04:12:00,29.0,23.0,-100.00,SSW,210,0.0,1.0,76,0.00,,,-99.99,,2013-01-19 09:12:00,
2013-01-19 04:23:00,29.0,23.0,-100.00,SSE,150,0.0,2.0,79,0.00,,,-99.99,,2013-01-19 09:23:00,
2013-01-19 04:33:00,30.0,24.0,-100.00,ESE,105,0.0,3.0,77,0.00,,,-99.99,,2013-01-19 09:33:00,
2013-01-19 04:42:00,30.0,23.0,-100.00,SSE,155,0.0,2.0,74,0.00,,,-99.99,,2013-01-19 09:42:00,
2013-01-19 04:52:00,30.0,24.0,-100.00,SSE,150,0.0,3.0,75,0.00,,,-99.99,,2013-01-19 09:52:00,
2013-01-19 05:02:00,31.0,24.0,-100.00,SE,135,1.0,6.0,73,0.00,,,-99.99,,2013-01-19 10:02:00,
2013-01-19 05:12:00,31.0,23.0,-100.00,SSE,165,1.0,6.0,71,0.00,,,-99.99,,2013-01-19 10:12:00,
2013-01-19 05:22:00,31.0,23.0,-100.00,South,170,1.0,4.0,69,0.00,,,-99.99,,2013-01-19 10:22:00,
2013-01-19 05:32:00,32.0,23.0,-100.00,South,175,1.0,3.0,68,0.00,,,-99.99,,2013-01-19 10:32:00,
2013-01-19 05:43:00,31.0,23.0,-100.00,ENE,70,0.0,6.0,71,0.00,,,-99.99,,2013-01-19 10:43:00,
2013-01-19 05:52:00,31.0,23.0,-100.00,WNW,285,1.0,7.0,72,0.00,,,-99.99,,2013-01-19 10:52:00,
2013-01-19 06:03:00,31.0,24.0,-100.00,NW,325,0.0,2.0,73,0.00,,,-99.99,,2013-01-19 11:03:00,
2013-01-19 06:12:00,30.0,23.0,-100.00,ESE,115,0.0,1.0,75,0.00,,,-99.99,,2013-01-19 11:12:00,
2013-01-19 07:48:00,28.0,22.0,-100.00,NW,325,0.0,3.0,77,0.00,,,-99.99,,2013-01-19 12:48:00,
2013-01-19 07:53:00,29.0,23.0,-100.00,ENE,70,0.0,3.0,79,0.00,,,-99.99,,2013-01-19 12:53:00,
2013-01-19 08:03:00,30.0,23.0,-100.00,SSE,155,1.0,5.0,74,0.00,,,-99.99,,2013-01-19 13:03:00,
2013-01-19 08:12:00,30.0,23.0,-100.00,NE,45,0.0,3.0,73,0.00,,,-99.99,,2013-01-19 13:12:00,
2013-01-19 08:22:00,30.0,23.0,-100.00,South,170,0.0,2.0,74,0.00,,,-99.99,,2013-01-19 13:22:00,
2013-01-19 08:33:00,30.0,23.0,-100.00,West,265,0.0,2.0,76,0.00,,,-99.99,,2013-01-19 13:33:00,
2013-01-19 08:43:00,30.0,23.0,-100.00,SE,145,0.0,4.0,76,0.00,,,-99.99,,2013-01-19 13:43:00,
2013-01-19 08:53:00,32.0,23.0,-100.00,South,175,2.0,4.0,70,0.00,,,-99.99,,2013-01-19 13:53:00,
2013-01-19 09:03:00,33.0,23.0,-100.00,South,180,2.0,6.0,66,0.00,,,-99.99,,2013-01-19 14:03:00,
2013-01-19 09:12:00,34.0,23.0,-100.00,South,190,0.0,4.0,64,0.00,,,-99.99,,2013-01-19 14:12:00,
2013-01-19 09:23:00,35.0,24.0,-100.00,SSE,150,2.0,7.0,63,0.00,,,-99.99,,2013-01-19 14:23:00,
2013-01-19 09:34:00,35.0,24.0,-100.00,SSE,150,1.0,6.0,62,1.10,,,-99.99,,2013-01-19 14:34:00,
2013-01-19 09:43:00,37.0,24.0,-100.00,SSE,160,2.0,7.0,59,0.00,,,-99.99,,2013-01-19 14:43:00,
2013-01-19 09:53:00,38.0,24.0,-100.00,SSE,160,2.0,6.0,56,0.00,,,-99.99,,2013-01-19 14:53:00,
2013-01-19 10:03:00,39.0,24.0,-100.00,SSE,160,4.0,9.0,55,0.00,,,-99.99,,2013-01-19 15:03:00,
2013-01-19 10:13:00,40.0,24.0,-100.00,South,190,4.0,9.0,52,0.00,,,-99.99,,2013-01-19 15:13:00,
2013-01-19 10:23:00,41.0,23.0,-100.00,SSW,195,6.0,11.0,48,7.36,,,-99.99,,2013-01-19 15:23:00,
2013-01-19 10:33:00,42.0,24.0,-100.00,South,175,6.0,13.0,48,2.83,,,-99.99,,2013-01-19 15:33:00,
2013-01-19 10:43:00,43.0,23.0,-100.00,South,180,6.0,12.0,43,0.00,,,-99.99,,2013-01-19 15:43:00,
2013-01-19 10:53:00,44.0,23.0,-100.00,SSW,195,11.0,17.0,44,0.00,,,-99.99,,2013-01-19 15:53:00,
2013-01-19 11:03:00,44.0,24.0,-100.00,SSW,200,9.0,15.0,44,5.67,,,-99.99,,2013-01-19 16:03:00,
2013-01-19 11:13:00,45.0,23.0,-100.00,SSW,195,6.0,19.0,40,1.10,,,-99.99,,2013-01-19 16:13:00,
2013-01-19 11:23:00,46.0,22.0,-100.00,SSW,200,12.0,19.0,39,0.00,,,-99.99,,2013-01-19 16:23:00,
2013-01-19 11:33:00,46.0,20.0,-100.00,South,190,13.0,21.0,34,0.55,,,-99.99,,2013-01-19 16:33:00,
2013-01-19 11:43:00,47.0,20.0,-100.00,SSW,210,9.0,19.0,33,6.77,,,-99.99,,2013-01-19 16:43:00,
2013-01-19 11:53:00,48.0,21.0,-100.00,SW,220,9.0,25.0,33,0.00,,,-99.99,,2013-01-19 16:53:00,
2013-01-19 12:03:00,49.0,20.0,-100.00,SSW,200,11.0,24.0,31,9.06,,,-99.99,,2013-01-19 17:03:00,
2013-01-19 12:20:00,49.0,20.0,-100.00,SSW,200,11.0,24.0,31,9.06,,,-99.99,,2013-01-19 17:20:00,
2013-01-19 12:29:00,50.0,19.0,-100.00,SW,235,9.0,24.0,29,3.39,,,-99.99,,2013-01-19 17:29:00,
2013-01-19 12:48:00,51.0,16.0,-100.00,SW,215,14.0,25.0,24,15.87,,,-99.99,,2013-01-19 17:48:00,
2013-01-19 12:54:00,51.0,16.0,-100.00,WSW,240,12.0,29.0,24,1.10,,,-99.99,,2013-01-19 17:54:00,
2013-01-19 13:12:00,52.0,17.0,-100.00,South,190,11.0,20.0,25,1.69,,,-99.99,,2013-01-19 18:12:00,
2013-01-19 13:27:00,53.0,19.0,-100.00,WSW,245,9.0,19.0,25,5.67,,,-99.99,,2013-01-19 18:27:00,
2013-01-19 13:36:00,53.0,17.0,-100.00,SW,215,14.0,27.0,24,0.00,,,-99.99,,2013-01-19 18:36:00,
2013-01-19 13:45:00,53.0,18.0,-100.00,South,190,17.0,22.0,24,7.36,,,-99.99,,2013-01-19 18:45:00,
2013-01-19 13:55:00,54.0,18.0,-100.00,South,190,11.0,21.0,24,0.00,,,-99.99,,2013-01-19 18:55:00,
2013-01-19 14:20:00,54.0,19.0,-100.00,SSW,205,14.0,21.0,25,0.00,,,-99.99,,2013-01-19 19:20:00,
2013-01-19 14:30:00,54.0,18.0,-100.00,SSE,160,9.0,20.0,24,3.39,,,-99.99,,2013-01-19 19:30:00,
2013-01-19 14:40:00,54.0,19.0,-100.00,SSW,200,10.0,18.0,24,1.69,,,-99.99,,2013-01-19 19:40:00,
2013-01-19 14:46:00,55.0,19.0,-100.00,South,190,9.0,22.0,24,4.53,,,-99.99,,2013-01-19 19:46:00,
2013-01-19 14:54:00,54.0,18.0,-100.00,SSW,200,11.0,25.0,23,0.00,,,-99.99,,2013-01-19 19:54:00,
2013-01-19 15:10:00,55.0,19.0,-100.00,South,170,10.0,30.0,24,0.00,,,-99.99,,2013-01-19 20:10:00,
2013-01-19 15:19:00,55.0,19.0,-100.00,SSW,205,10.0,21.0,24,0.00,,,-99.99,,2013-01-19 20:19:00,
2013-01-19 15:25:00,55.0,17.0,-100.00,SSW,195,14.0,24.0,22,0.00,,,-99.99,,2013-01-19 20:25:00,
2013-01-19 15:39:00,55.0,20.0,-100.00,SSW,200,10.0,21.0,25,0.00,,,-99.99,,2013-01-19 20:39:00,
2013-01-19 15:48:00,55.0,18.0,-100.00,SSW,195,13.0,22.0,22,0.00,,,-99.99,,2013-01-19 20:48:00,
2013-01-19 15:54:00,55.0,20.0,-100.00,SSW,205,12.0,17.0,24,0.00,,,-99.99,,2013-01-19 20:54:00,
2013-01-19 16:07:00,55.0,18.0,-100.00,South,185,14.0,21.0,23,0.00,,,-99.99,,2013-01-19 21:07:00,
2013-01-19 16:14:00,55.0,19.0,-100.00,SSW,205,9.0,21.0,24,0.00,,,-99.99,,2013-01-19 21:14:00,
2013-01-19 16:26:00,55.0,19.0,-100.00,SSW,210,11.0,17.0,24,0.00,,,-99.99,,2013-01-19 21:26:00,
2013-01-19 16:45:00,55.0,20.0,-100.00,SW,215,9.0,14.0,25,0.00,,,-99.99,,2013-01-19 21:45:00,
2013-01-19 16:56:00,54.0,21.0,-100.00,South,190,6.0,12.0,26,0.00,,,-99.99,,2013-01-19 21:56:00,
2013-01-19 17:15:00,54.0,20.0,-100.00,South,180,6.0,19.0,26,0.00,,,-99.99,,2013-01-19 22:15:00,
2013-01-19 17:27:00,53.0,20.0,-100.00,SW,215,8.0,16.0,27,0.00,,,-99.99,,2013-01-19 22:27:00,
2013-01-19 17:35:00,51.0,20.0,-100.00,SSW,205,6.0,12.0,29,0.00,,,-99.99,,2013-01-19 22:35:00,
2013-01-19 17:47:00,52.0,20.0,-100.00,South,180,7.0,16.0,28,0.00,,,-99.99,,2013-01-19 22:47:00,
2013-01-19 18:13:00,51.0,21.0,-100.00,SW,220,3.0,9.0,30,0.00,,,-99.99,,2013-01-19 23:13:00,
2013-01-19 18:25:00,50.0,20.0,-100.00,South,180,4.0,12.0,30,0.00,,,-99.99,,2013-01-19 23:25:00,
2013-01-19 18:35:00,49.0,20.0,-100.00,SSW,210,2.0,8.0,31,0.00,,,-99.99,,2013-01-19 23:35:00,
2013-01-19 18:45:00,49.0,22.0,-100.00,South,185,4.0,9.0,34,0.00,,,-99.99,,2013-01-19 23:45:00,
2013-01-19 18:59:00,49.0,22.0,-100.00,SSW,195,2.0,7.0,34,0.00,,,-99.99,,2013-01-19 23:59:00,
2013-01-19 19:09:00,49.0,23.0,-100.00,SW,225,4.0,7.0,35,0.00,,,-99.99,,2013-01-20 00:09:00,
2013-01-19 19:15:00,48.0,23.0,-100.00,South,185,2.0,9.0,37,0.00,,,-99.99,,2013-01-20 00:15:00,
2013-01-19 19:25:00,48.0,24.0,-100.00,South,190,5.0,11.0,38,0.00,,,-99.99,,2013-01-20 00:25:00,
2013-01-19 19:35:00,48.0,25.0,-100.00,South,180,6.0,16.0,39,0.00,,,-99.99,,2013-01-20 00:35:00,
2013-01-19 19:46:00,48.0,24.0,-100.00,South,185,5.0,11.0,37,0.00,,,-99.99,,2013-01-20 00:46:00,
2013-01-19 19:54:00,48.0,24.0,-100.00,SSW,205,4.0,9.0,38,0.00,,,-99.99,,2013-01-20 00:54:00,
2013-01-19 20:04:00,48.0,24.0,-100.00,South,185,5.0,14.0,38,0.00,,,-99.99,,2013-01-20 01:04:00,
2013-01-19 20:20:00,48.0,23.0,-100.00,South,180,6.0,10.0,37,0.00,,,-99.99,,2013-01-20 01:20:00,
2013-01-19 20:27:00,48.0,24.0,-100.00,SSW,195,11.0,17.0,37,0.00,,,-99.99,,2013-01-20 01:27:00,
2013-01-19 20:38:00,49.0,24.0,-100.00,South,185,5.0,16.0,38,0.00,,,-99.99,,2013-01-20 01:38:00,
2013-01-19 20:48:00,48.0,24.0,-100.00,South,180,6.0,13.0,38,0.00,,,-99.99,,2013-01-20 01:48:00,
2013-01-19 20:58:00,49.0,24.0,-100.00,WSW,240,4.0,16.0,37,0.00,,,-99.99,,2013-01-20 01:58:00,
2013-01-19 21:08:00,49.0,24.0,-100.00,SW,215,6.0,14.0,38,0.00,,,-99.99,,2013-01-20 02:08:00,
2013-01-19 21:15:00,48.0,25.0,-100.00,SSW,205,5.0,10.0,40,0.00,,,-99.99,,2013-01-20 02:15:00,
2013-01-19 21:26:00,47.0,25.0,-100.00,SSW,205,4.0,10.0,41,0.00,,,-99.99,,2013-01-20 02:26:00,
2013-01-19 21:44:00,46.0,25.0,-100.00,SW,220,3.0,8.0,42,0.00,,,-99.99,,2013-01-20 02:44:00,
2013-01-19 21:55:00,45.0,25.0,-100.00,South,190,2.0,7.0,44,0.00,,,-99.99,,2013-01-20 02:55:00,
2013-01-19 22:08:00,45.0,26.0,-100.00,South,170,1.0,6.0,46,0.00,,,-99.99,,2013-01-20 03:08:00,
2013-01-19 22:14:00,44.0,25.0,-100.00,South,185,2.0,6.0,46,0.00,,,-99.99,,2013-01-20 03:14:00,
2013-01-19 22:25:00,43.0,26.0,-100.00,South,190,1.0,5.0,49,0.00,,,-99.99,,2013-01-20 03:25:00,
2013-01-19 22:39:00,44.0,25.0,-100.00,South,190,2.0,6.0,46,0.00,,,-99.99,,2013-01-20 03:39:00,
2013-01-19 22:45:00,45.0,24.0,-100.00,SSW,200,3.0,8.0,44,0.00,,,-99.99,,2013-01-20 03:45:00,
2013-01-19 22:54:00,45.0,25.0,-100.00,SSW,200,2.0,11.0,43,0.00,,,-99.99,,2013-01-20 03:54:00,
2013-01-19 23:05:00,46.0,24.0,-100.00,South,185,4.0,11.0,42,0.00,,,-99.99,,2013-01-20 04:05:00,
2013-01-19 23:15:00,47.0,24.0,-100.00,SW,230,9.0,18.0,38,0.00,,,-99.99,,2013-01-20 04:15:00,
2013-01-19 23:26:00,47.0,24.0,-100.00,SSW,200,9.0,18.0,39,0.00,,,-99.99,,2013-01-20 04:26:00,
2013-01-19 23:37:00,48.0,24.0,-100.00,SSW,205,10.0,16.0,39,0.00,,,-99.99,,2013-01-20 04:37:00,
2013-01-19 23:44:00,48.0,25.0,-100.00,SW,220,12.0,22.0,38,0.00,,,-99.99,,2013-01-20 04:44:00,
2013-01-19 23:54:00,48.0,25.0,-100.00,SSW,195,9.0,18.0,40,0.00,,,-99.99,,2013-01-20 04:54:00,